[[{"header":{"parameterUnit":"m.s-1","parameterCategory":1,"la1":30.2991,"la2":30.254,"lo1":-89.0895,"lo2":-89.0444,"dy":0.0017,"dx":0.0017,"nx":28,"ny":28,"refTime":"2026-02-26T09:00:00:Z","depth":0,"parameterNumber":2,"parameterNumberName":"U-component_of_WINDS"},"data":[0,0,0,0,0,0,0,0,0,0,0,0,0,0,0,0,0,0,0,0,0,0,0,0,0,0,0,0,0,0,0,0,0,0,0,0,0,0,0,0,0,0,0,0,0,0,0,0,0,0,0,0,0,0,0,0,0,0,-1.5422,-1.5422,0,-1.5447,-1.5447,-1.5448,-1.5446,-1.5446,-1.5445,-1.5445,-1.5471,-1.5472,-1.5473,0,0,0,0,0,0,0,0,0,0,0,0,0,-1.5373,-1.5374,-1.5422,-1.5422,-1.5423,-1.5447,-1.5447,-1.5448,-1.5446,-1.5446,-1.5445,-1.5445,-1.5471,-1.5472,-1.5474,0,0,0,0,0,0,0,0,0,0,0,0,0,-1.5396,-1.5374,-1.5422,-1.5425,-1.5425,-1.5447,-1.5447,-1.5448,-1.5446,-1.5446,-1.5445,-1.5445,-1.5471,-1.5472,-1.5474,-1.5494,0,0,-1.5478,-1.5479,0,0,0,0,0,0,0,0,-1.5395,-1.5398,-1.5424,-1.5425,-1.5425,-1.5443,-1.544,-1.5463,-1.5446,-1.5438,-1.5445,-1.5444,-1.5462,-1.5465,-1.5471,-1.5496,-1.5497,-1.5479,-1.548,-1.548,-1.5481,0,0,0,0,0,0,0,-1.5393,-1.5397,-1.5432,-1.5424,-1.5425,-1.5425,-1.5428,-1.5444,-1.5453,-1.5439,-1.5439,-1.5442,-1.5463,-1.5469,-1.5471,-1.5497,-1.5479,-1.548,-1.5481,-1.5482,-1.554,-1.5541,0,0,0,0,0,0,-1.5391,-1.5395,-1.5431,-1.5433,-1.5408,-1.5426,-1.5429,-1.5438,-1.5453,-1.5455,-1.5442,-1.5442,-1.5467,-1.5469,-1.5472,-1.5498,-1.548,-1.5482,-1.5483,-1.554,-1.554,-1.5541,0,0,0,0,0,0,-1.539,-1.5394,-1.543,-1.5414,-1.5419,-1.5428,-1.5437,-1.5439,-1.5445,-1.5456,-1.5457,-1.5447,-1.5466,-1.547,-1.5489,-1.5498,-1.5482,-1.5484,-1.5539,-1.554,-1.5541,-1.5548,0,0,0,0,0,0,-1.5388,-1.5394,-1.5402,-1.5414,-1.5419,-1.5446,-1.5438,-1.5439,-1.5448,-1.5447,-1.5461,-1.5462,-1.5466,-1.5486,-1.549,-1.55,-1.5485,-1.5538,-1.5539,-1.554,-1.5547,-1.555,-1.5551,0,0,0,0,0,-1.5387,-1.5403,-1.5402,-1.5406,-1.543,-1.5447,-1.545,-1.5454,-1.5448,-1.5457,-1.5463,-1.5462,-1.5496,-1.5488,-1.5493,-1.5503,-1.5538,-1.5539,-1.554,-1.5547,-1.5549,-1.5551,0,0,0,0,0,0,-1.5391,-1.5405,-1.5404,-1.5425,-1.5435,-1.5447,-1.5457,-1.5457,-1.5469,-1.5468,-1.5472,-1.5475,-1.5494,-1.55,-1.5491,-1.5524,-1.5516,-1.5519,-1.5519,-1.5522,-1.5524,-1.5523,-1.5486,0,0,0,0,0,-1.5395,-1.5408,-1.5419,-1.5436,-1.5441,-1.5448,-1.5456,-1.5458,-1.5469,-1.5473,-1.5481,-1.5492,-1.5505,-1.5514,-1.5526,-1.5548,-1.5551,-1.5557,-1.5559,-1.5561,-1.5563,-1.5575,-1.5578,-1.5546,-1.5546,-1.5546,0,0,-1.5402,-1.5411,-1.5419,-1.5437,-1.5445,-1.5459,-1.5452,-1.5466,-1.5476,-1.5475,-1.5494,-1.55,-1.5512,-1.5532,-1.5542,-1.5538,-1.5573,-1.5563,-1.5564,-1.5565,-1.5577,-1.558,-1.5583,-1.5547,-1.5546,-1.5546,0,0,-1.5423,-1.543,-1.5446,-1.5454,-1.5466,-1.5471,-1.5474,-1.5486,-1.549,-1.5509,-1.5508,-1.552,-1.5543,-1.5552,-1.5559,-1.5582,-1.5581,-1.5586,-1.5597,-1.5609,-1.5611,-1.5613,-1.5622,-1.5625,-1.5588,-1.5588,-1.5588,0,-1.543,-1.5451,-1.5454,-1.5468,-1.5477,-1.5475,-1.5491,-1.5499,-1.5515,-1.552,-1.5516,-1.5544,-1.5552,-1.5575,-1.5581,-1.5586,-1.5591,-1.5585,-1.561,-1.5613,-1.5615,-1.5624,-1.5627,-1.5589,-1.5589,-1.5588,-1.5588,0,-1.546,-1.5474,-1.5485,-1.55,-1.5509,-1.5524,-1.553,-1.5538,-1.5539,-1.5544,-1.5563,-1.5573,-1.5588,-1.5593,-1.5594,-1.5616,-1.5613,-1.5609,-1.5602,-1.5619,-1.5627,-1.563,-1.5589,-1.5589,-1.5589,-1.5589,0,0,-1.5485,-1.5501,-1.5505,-1.5512,-1.5525,-1.5536,-1.5551,-1.5565,-1.5573,-1.5584,-1.5597,-1.5615,-1.5612,-1.5621,-1.5623,-1.5633,-1.5651,-1.5628,-1.5628,-1.5633,-1.5676,-1.5679,-1.5683,-1.565,-1.5651,-1.5651,-1.5675,0,-1.5508,-1.5534,-1.5537,-1.5561,-1.5574,-1.5573,-1.5586,-1.5595,-1.56,-1.5612,-1.5617,-1.5631,-1.5625,-1.563,-1.564,-1.5647,-1.566,-1.5645,-1.5663,-1.5664,-1.5661,-1.5687,-1.5691,-1.5713,-1.5678,-1.5679,-1.5679,0,-1.5538,-1.5549,-1.5574,-1.5585,-1.5591,-1.5603,-1.5616,-1.5627,-1.5638,-1.564,-1.5649,-1.565,-1.5666,-1.5657,-1.5678,-1.5668,-1.5675,-1.5679,-1.568,-1.5683,-1.5673,-1.5692,-1.572,-1.5724,-1.5684,-1.5684,-1.5683,0,-1.5555,-1.5576,-1.5594,-1.56,-1.5613,-1.5621,-1.5627,-1.5637,-1.5645,-1.5657,-1.5662,-1.5675,-1.5683,-1.5693,-1.5697,-1.569,-1.5719,-1.571,-1.5722,-1.5722,-1.5729,-1.5729,-1.576,-1.5732,-1.5732,-1.5732,-1.5732,0,-1.558,-1.5596,-1.5602,-1.5613,-1.563,-1.5633,-1.565,-1.5656,-1.5665,-1.5677,-1.5676,-1.5688,-1.5692,-1.5704,-1.5708,-1.5725,-1.5729,-1.5732,-1.5733,-1.5732,-1.5732,-1.5738,-1.5737,-1.5733,-1.5733,-1.5733,-1.5732,0,-1.5603,-1.5607,-1.5627,-1.5637,-1.564,-1.5653,-1.5662,-1.5673,-1.5677,-1.5693,-1.5696,-1.5703,-1.5718,-1.5722,-1.574,-1.5742,-1.5763,-1.5762,-1.5759,-1.576,-1.5772,-1.5771,-1.5809,-1.5815,-1.5782,-1.5782,-1.5783,0,-1.5619,-1.5631,-1.5643,-1.5651,-1.5657,-1.567,-1.5679,-1.5682,-1.569,-1.5703,-1.5712,-1.5726,-1.5738,-1.5761,-1.5768,-1.5781,-1.5781,-1.5793,-1.5783,-1.5782,-1.5782,-1.5782,-1.5783,-1.5796,-1.5796,-1.5796,-1.5796,0,-1.5648,-1.565,-1.5662,-1.5675,-1.5685,-1.5695,-1.5705,-1.5711,-1.5716,-1.5726,-1.574,-1.5749,-1.5766,-1.5781,-1.5794,-1.58,-1.5799,-1.5799,-1.5803,-1.5804,-1.5802,-1.5804,-1.5766,-1.5799,-1.5799,-1.5798,-1.5798,-1.5798,-1.5669,-1.568,-1.569,-1.5703,-1.5711,-1.572,-1.5731,-1.5736,-1.5748,-1.5762,-1.5763,-1.5779,-1.5789,-1.5807,-1.5814,-1.5826,-1.5823,-1.5828,-1.5829,-1.5831,-1.5832,-1.5799,-1.5828,-1.5828,-1.5828,-1.5828,-1.5828,0,-1.5699,-1.5705,-1.5717,-1.5731,-1.5742,-1.5739,-1.5749,-1.5759,-1.5772,-1.5782,-1.5793,-1.581,-1.5823,-1.583,-1.5844,-1.5853,-1.5853,-1.5856,-1.5856,-1.5858,-1.5834,-1.583,-1.5856,-1.5856,-1.5856,-1.5856,-1.5856,-1.5856,-1.5716,-1.5734,-1.5737,-1.5758,-1.5764,-1.578,-1.5786,-1.5795,-1.5802,-1.582,-1.5832,-1.5836,-1.5845,-1.5859,-1.5871,-1.5873,-1.5878,-1.5883,-1.5884,-1.5862,-1.5859,-1.5857,-1.5853,-1.5883,-1.5884,-1.5907,-1.5907,-1.5907]},{"header":{"parameterUnit":"m.s-1","parameterCategory":1,"la1":30.2991,"la2":30.254,"lo1":-89.0895,"lo2":-89.0444,"dy":0.0017,"dx":0.0017,"nx":28,"ny":28,"refTime":"2026-02-26T09:00:00:Z","depth":0,"parameterNumber":3,"parameterNumberName":"V-component_of_WINDS"},"data":[0,0,0,0,0,0,0,0,0,0,0,0,0,0,0,0,0,0,0,0,0,0,0,0,0,0,0,0,0,0,0,0,0,0,0,0,0,0,0,0,0,0,0,0,0,0,0,0,0,0,0,0,0,0,0,0,0,0,-1.9749,-1.9749,0,-1.9763,-1.9763,-1.9763,-1.9758,-1.9757,-1.9757,-1.9757,-1.977,-1.9771,-1.9771,0,0,0,0,0,0,0,0,0,0,0,0,0,-1.9715,-1.9715,-1.9749,-1.9749,-1.9749,-1.9763,-1.9763,-1.9764,-1.9758,-1.9757,-1.9757,-1.9756,-1.977,-1.9771,-1.9771,0,0,0,0,0,0,0,0,0,0,0,0,0,-1.9729,-1.9716,-1.9749,-1.9748,-1.9748,-1.9763,-1.9763,-1.9764,-1.9758,-1.9757,-1.9757,-1.9756,-1.977,-1.9771,-1.9772,-1.9788,0,0,-1.9775,-1.9775,0,0,0,0,0,0,0,0,-1.9728,-1.973,-1.9748,-1.9748,-1.9748,-1.9758,-1.9756,-1.9772,-1.9758,-1.9754,-1.9757,-1.9756,-1.9766,-1.9768,-1.9771,-1.9789,-1.9789,-1.9775,-1.9775,-1.9776,-1.9776,0,0,0,0,0,0,0,-1.9727,-1.973,-1.9754,-1.9748,-1.9748,-1.9746,-1.9748,-1.9759,-1.9763,-1.9754,-1.9754,-1.9756,-1.9766,-1.977,-1.9772,-1.9789,-1.9775,-1.9776,-1.9776,-1.9777,-1.982,-1.982,0,0,0,0,0,0,-1.9727,-1.9729,-1.9754,-1.9755,-1.9737,-1.9747,-1.9749,-1.9755,-1.9763,-1.9763,-1.9756,-1.9755,-1.9769,-1.9771,-1.9772,-1.9791,-1.9776,-1.9777,-1.9777,-1.9819,-1.982,-1.982,0,0,0,0,0,0,-1.9726,-1.9729,-1.9753,-1.9742,-1.9745,-1.9748,-1.9756,-1.9756,-1.976,-1.9764,-1.9765,-1.976,-1.9769,-1.9771,-1.9784,-1.9792,-1.9777,-1.9778,-1.9819,-1.9819,-1.982,-1.983,0,0,0,0,0,0,-1.9725,-1.9729,-1.9735,-1.9742,-1.9745,-1.9765,-1.9756,-1.9757,-1.9762,-1.9761,-1.9768,-1.9768,-1.9768,-1.9782,-1.9785,-1.9793,-1.9779,-1.9818,-1.9819,-1.982,-1.9829,-1.9831,-1.9833,0,0,0,0,0,-1.9724,-1.9737,-1.9736,-1.9739,-1.9754,-1.9766,-1.9768,-1.9768,-1.9763,-1.9769,-1.9772,-1.9768,-1.979,-1.9784,-1.9787,-1.9795,-1.9817,-1.9819,-1.982,-1.9828,-1.9831,-1.9833,0,0,0,0,0,0,-1.9731,-1.9738,-1.9736,-1.9753,-1.9759,-1.9765,-1.9773,-1.9771,-1.9778,-1.9777,-1.9777,-1.9778,-1.9792,-1.9795,-1.9787,-1.9811,-1.9803,-1.9805,-1.9808,-1.9811,-1.9813,-1.9811,-1.978,0,0,0,0,0,-1.9735,-1.9744,-1.975,-1.9764,-1.9767,-1.9769,-1.9775,-1.9774,-1.978,-1.9783,-1.9786,-1.9792,-1.98,-1.9806,-1.9814,-1.9829,-1.983,-1.9836,-1.9838,-1.984,-1.9841,-1.9849,-1.9852,-1.9824,-1.9824,-1.9824,0,0,-1.9742,-1.9747,-1.9753,-1.9765,-1.977,-1.9779,-1.9772,-1.9782,-1.9789,-1.9784,-1.9797,-1.98,-1.9806,-1.982,-1.9827,-1.9823,-1.9849,-1.9841,-1.9842,-1.9843,-1.9851,-1.9853,-1.9855,-1.9825,-1.9825,-1.9825,0,0,-1.976,-1.9765,-1.9777,-1.9782,-1.9789,-1.9791,-1.9794,-1.98,-1.9802,-1.9815,-1.9811,-1.9819,-1.9833,-1.9838,-1.9842,-1.9861,-1.9858,-1.9864,-1.9874,-1.9881,-1.9883,-1.9885,-1.9892,-1.9894,-1.9865,-1.9865,-1.9865,0,-1.9768,-1.9783,-1.9784,-1.9794,-1.9799,-1.9796,-1.9807,-1.9812,-1.9821,-1.9824,-1.982,-1.9838,-1.9842,-1.9857,-1.9862,-1.9865,-1.9868,-1.9863,-1.9883,-1.9885,-1.9887,-1.9893,-1.9895,-1.9866,-1.9866,-1.9866,-1.9866,0,-1.9792,-1.9802,-1.9811,-1.982,-1.9826,-1.9837,-1.9839,-1.9845,-1.9844,-1.9846,-1.9858,-1.9863,-1.9871,-1.9875,-1.9874,-1.989,-1.9887,-1.9883,-1.9875,-1.989,-1.9896,-1.9898,-1.9867,-1.9867,-1.9866,-1.9866,0,0,-1.9816,-1.9825,-1.9828,-1.9832,-1.9839,-1.9847,-1.9857,-1.9866,-1.9871,-1.9877,-1.9886,-1.9898,-1.9894,-1.9898,-1.9898,-1.9905,-1.9919,-1.99,-1.99,-1.9903,-1.9936,-1.9939,-1.9941,-1.9917,-1.9918,-1.9918,-1.9935,0,-1.9834,-1.9853,-1.9854,-1.9871,-1.9879,-1.9876,-1.9885,-1.9891,-1.9892,-1.99,-1.9902,-1.991,-1.9905,-1.9907,-1.9914,-1.9916,-1.9926,-1.9915,-1.9924,-1.9925,-1.9923,-1.9945,-1.9948,-1.9964,-1.9938,-1.9938,-1.9938,0,-1.9858,-1.9865,-1.9883,-1.9889,-1.9893,-1.9901,-1.9909,-1.9916,-1.9922,-1.9922,-1.9928,-1.9926,-1.9936,-1.9928,-1.9942,-1.9934,-1.9938,-1.994,-1.994,-1.9941,-1.9932,-1.9945,-1.9969,-1.9971,-1.9942,-1.9941,-1.9941,0,-1.9873,-1.9887,-1.9899,-1.9903,-1.991,-1.9916,-1.9919,-1.9924,-1.9929,-1.9936,-1.9939,-1.9946,-1.995,-1.9956,-1.9956,-1.995,-1.9969,-1.9962,-1.997,-1.997,-1.9974,-1.9974,-1.9998,-1.9977,-1.9977,-1.9977,-1.9977,0,-1.9893,-1.9904,-1.9906,-1.9914,-1.9926,-1.9926,-1.9938,-1.994,-1.9945,-1.9952,-1.995,-1.9957,-1.9957,-1.9964,-1.9965,-1.9975,-1.9977,-1.9978,-1.9978,-1.9978,-1.9978,-1.998,-1.9979,-1.9978,-1.9977,-1.9977,-1.9977,0,-1.9911,-1.9913,-1.9926,-1.9932,-1.9934,-1.9942,-1.9947,-1.9954,-1.9955,-1.9965,-1.9967,-1.997,-1.9978,-1.9979,-1.9988,-1.9988,-2.0001,-2.0,-1.9999,-1.9999,-2.0007,-2.0006,-2.0034,-2.0037,-2.0014,-2.0014,-2.0015,0,-1.9924,-1.9932,-1.9939,-1.9944,-1.9947,-1.9956,-1.9961,-1.9961,-1.9966,-1.9973,-1.9979,-1.9987,-1.9993,-2.0007,-2.0009,-2.0016,-2.0015,-2.0024,-2.0016,-2.0015,-2.0014,-2.0014,-2.0014,-2.0025,-2.0025,-2.0026,-2.0026,0,-1.9946,-1.9946,-1.9954,-1.9962,-1.9968,-1.9974,-1.998,-1.9984,-1.9985,-1.9991,-1.9999,-2.0004,-2.0014,-2.0021,-2.0028,-2.0031,-2.0028,-2.0028,-2.0031,-2.0031,-2.003,-2.003,-2.0003,-2.0028,-2.0028,-2.0027,-2.0027,-2.0027,-1.9961,-1.9968,-1.9974,-1.9982,-1.9987,-1.9992,-1.9999,-2.0001,-2.0008,-2.0016,-2.0016,-2.0025,-2.003,-2.0039,-2.0042,-2.0049,-2.0046,-2.0049,-2.005,-2.0051,-2.0051,-2.0029,-2.005,-2.005,-2.005,-2.005,-2.005,0,-1.9983,-1.9986,-1.9994,-2.0002,-2.0008,-2.0006,-2.0012,-2.0017,-2.0025,-2.003,-2.0037,-2.0046,-2.0053,-2.0056,-2.0063,-2.0068,-2.0067,-2.007,-2.0069,-2.007,-2.0054,-2.0051,-2.0071,-2.0071,-2.0071,-2.0071,-2.0071,-2.0071,-1.9995,-2.0007,-2.0008,-2.0021,-2.0024,-2.0034,-2.0037,-2.0042,-2.0046,-2.0056,-2.0063,-2.0064,-2.0068,-2.0076,-2.0082,-2.0083,-2.0085,-2.0088,-2.0088,-2.0073,-2.0071,-2.0069,-2.0067,-2.0089,-2.0089,-2.0104,-2.0104,-2.0104]}]]